[[{"header":{"parameterUnit":"m.s-1","parameterCategory":1,"la1":30.2991,"la2":30.254,"lo1":-89.0895,"lo2":-89.0444,"dy":0.0017,"dx":0.0017,"nx":28,"ny":28,"refTime":"2024-03-18T21:00:00:Z","depth":0,"parameterNumber":2,"parameterNumberName":"U-component_of_WINDS"},"data":[0,0,0,0,0,0,0,0,0,0,0,0,0,0,0,0,0,0,0,0,0,0,0,0,0,0,0,0,0,0,0,0,0,0,0,0,0,0,0,0,0,0,0,0,0,0,0,0,0,0,0,0,0,0,0,0,0,0,-3.0644,-3.0645,0,-3.0713,-3.0714,-3.0715,-3.0579,-3.0575,-3.057,-3.0566,-3.064,-3.0646,-3.0652,0,0,0,0,0,0,0,0,0,0,0,0,0,-3.0396,-3.0401,-3.0644,-3.0645,-3.0645,-3.0713,-3.0714,-3.0715,-3.058,-3.0574,-3.0569,-3.0564,-3.0638,-3.0645,-3.0652,0,0,0,0,0,0,0,0,0,0,0,0,0,-3.0488,-3.0403,-3.0644,-3.0586,-3.0582,-3.0713,-3.0714,-3.0715,-3.0581,-3.0574,-3.0567,-3.0561,-3.0635,-3.0644,-3.0653,-3.0844,0,0,-3.0681,-3.0685,0,0,0,0,0,0,0,0,-3.0483,-3.0497,-3.0594,-3.059,-3.0586,-3.063,-3.0653,-3.0758,-3.0583,-3.0581,-3.0566,-3.0558,-3.0642,-3.065,-3.0678,-3.0848,-3.0851,-3.0682,-3.0688,-3.0692,-3.0694,0,0,0,0,0,0,0,-3.0477,-3.0494,-3.0671,-3.0595,-3.059,-3.0557,-3.0563,-3.0672,-3.0649,-3.0581,-3.0571,-3.0581,-3.0639,-3.067,-3.0679,-3.0852,-3.0682,-3.069,-3.0696,-3.0699,-3.1179,-3.1186,0,0,0,0,0,0,-3.0477,-3.0489,-3.0669,-3.0673,-3.0517,-3.0567,-3.0574,-3.0623,-3.0647,-3.0644,-3.0587,-3.0575,-3.0657,-3.0668,-3.0681,-3.0905,-3.0691,-3.07,-3.0705,-3.1172,-3.1181,-3.1189,0,0,0,0,0,0,-3.0473,-3.0495,-3.0666,-3.0579,-3.0598,-3.0579,-3.0635,-3.0628,-3.0658,-3.0651,-3.0647,-3.0623,-3.0652,-3.0668,-3.0804,-3.0906,-3.0704,-3.0713,-3.1164,-3.1175,-3.1185,-3.1356,0,0,0,0,0,0,-3.0466,-3.0494,-3.0566,-3.0581,-3.0603,-3.0788,-3.0641,-3.0634,-3.0674,-3.0659,-3.0684,-3.0682,-3.0648,-3.0791,-3.0813,-3.0915,-3.072,-3.1154,-3.1169,-3.1181,-3.1341,-3.1371,-3.1397,0,0,0,0,0,-3.0458,-3.0612,-3.057,-3.0593,-3.0693,-3.0795,-3.0807,-3.0765,-3.0683,-3.0756,-3.0751,-3.0681,-3.0891,-3.0806,-3.083,-3.0936,-3.1148,-3.1165,-3.118,-3.1329,-3.1365,-3.1396,0,0,0,0,0,0,-3.0611,-3.0613,-3.0567,-3.0731,-3.0764,-3.0771,-3.0862,-3.0805,-3.0862,-3.0846,-3.0791,-3.0798,-3.0945,-3.0954,-3.0859,-3.1121,-3.1006,-3.1028,-3.111,-3.1145,-3.1172,-3.1168,-3.0727,0,0,0,0,0,-3.0664,-3.0746,-3.0743,-3.0889,-3.0907,-3.0882,-3.0925,-3.0889,-3.0921,-3.0934,-3.0939,-3.0973,-3.1046,-3.1096,-3.1163,-3.1341,-3.1344,-3.1426,-3.1454,-3.1477,-3.1497,-3.159,-3.1626,-3.1242,-3.1242,-3.1242,0,0,-3.0775,-3.0786,-3.0841,-3.092,-3.094,-3.1026,-3.0895,-3.0991,-3.1055,-3.0949,-3.1077,-3.1082,-3.1116,-3.1274,-3.1344,-3.1286,-3.1603,-3.1497,-3.1516,-3.1523,-3.1611,-3.1647,-3.1679,-3.1253,-3.1251,-3.125,0,0,-3.1019,-3.1036,-3.1158,-3.1182,-3.1214,-3.1196,-3.1226,-3.1242,-3.1241,-3.1368,-3.129,-3.1364,-3.1492,-3.1519,-3.155,-3.1803,-3.1741,-3.1827,-3.1973,-3.2065,-3.2096,-3.2122,-3.2212,-3.2245,-3.1846,-3.1847,-3.1847,0,-3.1153,-3.1279,-3.1229,-3.1331,-3.1367,-3.1274,-3.1397,-3.1422,-3.1476,-3.1503,-3.1437,-3.1594,-3.1611,-3.1773,-3.1835,-3.1863,-3.1894,-3.1824,-3.2095,-3.2121,-3.2145,-3.223,-3.2264,-3.1857,-3.1856,-3.1855,-3.1854,0,-3.1441,-3.1529,-3.1624,-3.1677,-3.1724,-3.1836,-3.1803,-3.1857,-3.1817,-3.1806,-3.1936,-3.1952,-3.2021,-3.2056,-3.2019,-3.2213,-3.2176,-3.2104,-3.1987,-3.2193,-3.2272,-3.2304,-3.1871,-3.1868,-3.1865,-3.1862,0,0,-3.1787,-3.1808,-3.1844,-3.1866,-3.1894,-3.1962,-3.2069,-3.2135,-3.2182,-3.2221,-3.231,-3.2419,-3.2352,-3.2387,-3.2351,-3.2432,-3.2631,-3.2349,-3.2349,-3.2401,-3.2845,-3.2899,-3.2938,-3.2589,-3.2595,-3.2599,-3.2842,0,-3.2029,-3.2213,-3.2171,-3.2353,-3.2433,-3.2345,-3.2438,-3.2466,-3.2458,-3.2525,-3.2516,-3.2595,-3.25,-3.252,-3.2596,-3.2591,-3.2719,-3.2572,-3.2671,-3.2675,-3.2666,-3.2979,-3.3037,-3.3265,-3.2872,-3.2878,-3.2881,0,-3.2337,-3.2387,-3.2577,-3.2591,-3.2623,-3.2708,-3.2763,-3.2829,-3.2858,-3.2846,-3.2885,-3.2833,-3.2939,-3.282,-3.2965,-3.2866,-3.2904,-3.2907,-3.2915,-3.2923,-3.2791,-3.2996,-3.3337,-3.3372,-3.293,-3.2926,-3.2922,0,-3.257,-3.2685,-3.2812,-3.2834,-3.2853,-3.2915,-3.2926,-3.2948,-3.299,-3.3038,-3.3065,-3.3126,-3.316,-3.3208,-3.3173,-3.309,-3.3325,-3.3203,-3.3318,-3.3319,-3.3372,-3.3369,-3.3724,-3.3396,-3.3396,-3.3395,-3.3395,0,-3.2845,-3.2965,-3.2917,-3.2996,-3.3127,-3.3076,-3.3208,-3.3208,-3.3229,-3.3306,-3.3233,-3.3307,-3.3257,-3.3327,-3.3301,-3.3425,-3.3441,-3.3435,-3.3426,-3.3441,-3.3442,-3.3466,-3.3449,-3.3404,-3.3402,-3.34,-3.3399,0,-3.3128,-3.3101,-3.3234,-3.3241,-3.3245,-3.3341,-3.3347,-3.342,-3.3406,-3.3504,-3.3525,-3.3503,-3.3582,-3.3552,-3.3636,-3.3618,-3.3776,-3.3747,-3.3766,-3.3759,-3.3875,-3.3865,-3.4258,-3.4307,-3.3948,-3.3951,-3.3954,0,-3.3306,-3.3396,-3.3411,-3.3457,-3.3473,-3.3548,-3.359,-3.3543,-3.3589,-3.3628,-3.3697,-3.3768,-3.3823,-3.3953,-3.3945,-3.4008,-3.398,-3.4113,-3.3989,-3.4001,-3.3982,-3.3977,-3.3985,-3.4139,-3.4143,-3.4146,-3.4149,0,-3.3624,-3.3606,-3.3668,-3.3726,-3.3777,-3.382,-3.3857,-3.3899,-3.3854,-3.391,-3.3988,-3.4031,-3.4115,-3.4188,-3.4244,-3.4255,-3.4195,-3.4188,-3.4218,-3.4234,-3.4241,-3.4239,-3.3834,-3.4179,-3.4176,-3.4174,-3.4172,-3.4171,-3.386,-3.3935,-3.3957,-3.4028,-3.4051,-3.4086,-3.4155,-3.4149,-3.4213,-3.4278,-3.4246,-3.4337,-3.4362,-3.4431,-3.4451,-3.4521,-3.4469,-3.4513,-3.4524,-3.4535,-3.455,-3.423,-3.4531,-3.4531,-3.453,-3.4529,-3.4528,0,-3.4174,-3.4183,-3.4249,-3.4302,-3.4359,-3.4296,-3.4333,-3.4384,-3.4465,-3.4493,-3.4548,-3.4638,-3.4707,-3.4704,-3.4767,-3.4824,-3.4799,-3.4843,-3.4838,-3.4842,-3.4593,-3.4561,-3.4863,-3.4863,-3.4862,-3.4862,-3.4862,-3.4862,-3.4344,-3.4467,-3.4451,-3.4585,-3.4593,-3.4681,-3.4708,-3.474,-3.4762,-3.4865,-3.4922,-3.4918,-3.4934,-3.4998,-3.5058,-3.5055,-3.5082,-3.5137,-3.5124,-3.4892,-3.4859,-3.4828,-3.4797,-3.5143,-3.5144,-3.5366,-3.5368,-3.537]},{"header":{"parameterUnit":"m.s-1","parameterCategory":1,"la1":30.2991,"la2":30.254,"lo1":-89.0895,"lo2":-89.0444,"dy":0.0017,"dx":0.0017,"nx":28,"ny":28,"refTime":"2024-03-18T21:00:00:Z","depth":0,"parameterNumber":3,"parameterNumberName":"V-component_of_WINDS"},"data":[0,0,0,0,0,0,0,0,0,0,0,0,0,0,0,0,0,0,0,0,0,0,0,0,0,0,0,0,0,0,0,0,0,0,0,0,0,0,0,0,0,0,0,0,0,0,0,0,0,0,0,0,0,0,0,0,0,0,-5.4545,-5.4546,0,-5.462,-5.4621,-5.4621,-5.4525,-5.4521,-5.4517,-5.4514,-5.4587,-5.4593,-5.4598,0,0,0,0,0,0,0,0,0,0,0,0,0,-5.4314,-5.4319,-5.4545,-5.4546,-5.4547,-5.462,-5.4621,-5.4622,-5.4525,-5.4521,-5.4517,-5.4513,-5.4586,-5.4592,-5.4598,0,0,0,0,0,0,0,0,0,0,0,0,0,-5.4404,-5.4321,-5.4545,-5.4508,-5.4505,-5.4619,-5.4621,-5.4622,-5.4526,-5.4521,-5.4515,-5.4511,-5.4584,-5.4591,-5.4599,-5.4753,0,0,-5.4623,-5.4626,0,0,0,0,0,0,0,0,-5.4399,-5.4413,-5.4512,-5.4511,-5.4508,-5.4557,-5.4566,-5.4666,-5.4527,-5.4518,-5.4514,-5.4508,-5.4582,-5.4589,-5.4615,-5.4756,-5.4759,-5.4624,-5.4628,-5.4632,-5.4634,0,0,0,0,0,0,0,-5.4393,-5.4409,-5.4574,-5.4514,-5.4511,-5.4486,-5.4493,-5.4584,-5.4578,-5.4518,-5.4512,-5.4522,-5.4579,-5.4607,-5.4616,-5.476,-5.4623,-5.463,-5.4635,-5.4638,-5.5027,-5.5033,0,0,0,0,0,0,-5.4392,-5.4405,-5.4572,-5.4577,-5.444,-5.4494,-5.4502,-5.4547,-5.4577,-5.4577,-5.4526,-5.4517,-5.4597,-5.4607,-5.4618,-5.4797,-5.4632,-5.4639,-5.4644,-5.5022,-5.5029,-5.5035,0,0,0,0,0,0,-5.4387,-5.4408,-5.4569,-5.4489,-5.4507,-5.4504,-5.4555,-5.4551,-5.4579,-5.4583,-5.4581,-5.4556,-5.4593,-5.4607,-5.4719,-5.4798,-5.4643,-5.465,-5.5015,-5.5024,-5.5032,-5.5159,0,0,0,0,0,0,-5.4381,-5.4407,-5.4467,-5.4491,-5.4512,-5.4671,-5.456,-5.4556,-5.4593,-5.4582,-5.4611,-5.461,-5.459,-5.4708,-5.4727,-5.4806,-5.4656,-5.5008,-5.5019,-5.5029,-5.5148,-5.5171,-5.519,0,0,0,0,0,-5.4373,-5.45,-5.447,-5.4491,-5.4587,-5.4676,-5.4688,-5.4663,-5.46,-5.4659,-5.4661,-5.4609,-5.4787,-5.472,-5.4741,-5.4824,-5.5003,-5.5016,-5.5028,-5.5138,-5.5166,-5.519,0,0,0,0,0,0,-5.4484,-5.4502,-5.447,-5.4608,-5.4641,-5.466,-5.4733,-5.4694,-5.4745,-5.4732,-5.4697,-5.4704,-5.4824,-5.4835,-5.4761,-5.4972,-5.4884,-5.4902,-5.4961,-5.4987,-5.5008,-5.5003,-5.4662,0,0,0,0,0,-5.4525,-5.4597,-5.4608,-5.4729,-5.4747,-5.4738,-5.4776,-5.4753,-5.4786,-5.4799,-5.4809,-5.4842,-5.4904,-5.4947,-5.5005,-5.5149,-5.5152,-5.5216,-5.5237,-5.5254,-5.527,-5.5344,-5.5371,-5.5076,-5.5076,-5.5076,0,0,-5.4609,-5.4628,-5.4676,-5.4752,-5.4775,-5.4848,-5.475,-5.4833,-5.4887,-5.4811,-5.4918,-5.4926,-5.496,-5.5088,-5.5145,-5.5101,-5.5352,-5.5271,-5.5285,-5.529,-5.536,-5.5387,-5.5412,-5.5085,-5.5083,-5.5082,0,0,-5.48,-5.4823,-5.4925,-5.495,-5.4986,-5.4978,-5.5003,-5.5027,-5.503,-5.5136,-5.508,-5.5142,-5.5252,-5.5278,-5.5305,-5.5503,-5.5457,-5.5523,-5.5635,-5.5707,-5.5731,-5.5751,-5.582,-5.5845,-5.5538,-5.5539,-5.5539,0,-5.49,-5.5011,-5.4982,-5.5068,-5.5102,-5.5037,-5.5138,-5.5163,-5.5217,-5.5241,-5.5191,-5.5325,-5.5344,-5.5475,-5.5524,-5.5549,-5.5574,-5.552,-5.573,-5.575,-5.5768,-5.5833,-5.586,-5.5546,-5.5546,-5.5545,-5.5544,0,-5.5131,-5.5208,-5.5285,-5.5338,-5.5381,-5.5474,-5.5457,-5.5504,-5.5477,-5.5474,-5.5581,-5.5601,-5.566,-5.569,-5.5665,-5.5818,-5.5789,-5.5736,-5.5646,-5.5805,-5.5865,-5.589,-5.5557,-5.5555,-5.5552,-5.555,0,0,-5.5395,-5.5429,-5.5458,-5.548,-5.5514,-5.5572,-5.5661,-5.572,-5.576,-5.5798,-5.587,-5.5963,-5.5913,-5.5944,-5.5921,-5.5985,-5.6137,-5.5922,-5.5922,-5.596,-5.6304,-5.6344,-5.6373,-5.6107,-5.6112,-5.6116,-5.6301,0,-5.5584,-5.574,-5.5715,-5.5865,-5.5934,-5.5872,-5.5949,-5.5977,-5.5977,-5.6034,-5.6032,-5.6098,-5.6027,-5.6045,-5.6106,-5.6106,-5.6206,-5.6093,-5.6172,-5.6175,-5.6165,-5.6405,-5.6448,-5.6621,-5.6324,-5.6328,-5.6331,0,-5.5827,-5.5874,-5.603,-5.6051,-5.6079,-5.615,-5.62,-5.6256,-5.6286,-5.628,-5.6314,-5.6278,-5.6365,-5.6275,-5.6392,-5.6316,-5.6346,-5.6351,-5.6357,-5.6363,-5.6262,-5.6415,-5.6677,-5.6702,-5.6368,-5.6366,-5.6363,0,-5.6001,-5.6103,-5.621,-5.6231,-5.6258,-5.6309,-5.6322,-5.6347,-5.6383,-5.6426,-5.6449,-5.6502,-5.6531,-5.6572,-5.655,-5.6487,-5.6671,-5.658,-5.6667,-5.6668,-5.6708,-5.6705,-5.6976,-5.673,-5.673,-5.6729,-5.6729,0,-5.6215,-5.6312,-5.6288,-5.6353,-5.646,-5.643,-5.6535,-5.6541,-5.6563,-5.6627,-5.6577,-5.6637,-5.6606,-5.6663,-5.6647,-5.6745,-5.6759,-5.6756,-5.675,-5.676,-5.676,-5.6779,-5.6765,-5.6736,-5.6735,-5.6734,-5.6732,0,-5.6428,-5.6416,-5.6527,-5.6543,-5.6549,-5.6627,-5.664,-5.67,-5.6695,-5.6776,-5.6793,-5.6784,-5.6849,-5.6832,-5.6903,-5.6891,-5.7015,-5.6994,-5.7005,-5.7,-5.7087,-5.7079,-5.7379,-5.7415,-5.7147,-5.715,-5.7152,0,-5.6564,-5.6638,-5.6662,-5.6701,-5.6719,-5.6783,-5.6819,-5.6791,-5.6831,-5.6868,-5.6923,-5.6984,-5.7031,-5.7137,-5.7136,-5.7189,-5.7168,-5.727,-5.7176,-5.7183,-5.7168,-5.7163,-5.7169,-5.7288,-5.7291,-5.7294,-5.7296,0,-5.6807,-5.6797,-5.6852,-5.6904,-5.6949,-5.6989,-5.7024,-5.7058,-5.7032,-5.7079,-5.7145,-5.7181,-5.7253,-5.7313,-5.7361,-5.7372,-5.733,-5.7325,-5.7348,-5.7358,-5.7361,-5.7358,-5.7054,-5.7318,-5.7316,-5.7314,-5.7313,-5.7312,-5.6985,-5.7046,-5.7072,-5.7134,-5.7157,-5.7191,-5.7247,-5.7248,-5.7303,-5.7359,-5.7339,-5.7414,-5.7439,-5.7499,-5.7517,-5.7574,-5.7535,-5.7568,-5.7577,-5.7585,-5.7595,-5.7353,-5.7582,-5.7582,-5.7581,-5.7581,-5.758,0,-5.7223,-5.7237,-5.7294,-5.7344,-5.7392,-5.7348,-5.7384,-5.7426,-5.7493,-5.7521,-5.7567,-5.7642,-5.7699,-5.7702,-5.7755,-5.78,-5.7781,-5.7815,-5.781,-5.7813,-5.7628,-5.7602,-5.7829,-5.7829,-5.7828,-5.7828,-5.7828,-5.7828,-5.7353,-5.7454,-5.7447,-5.7558,-5.757,-5.7643,-5.7667,-5.7696,-5.7718,-5.7803,-5.7851,-5.7852,-5.7869,-5.7923,-5.7972,-5.7971,-5.7993,-5.8033,-5.8025,-5.7851,-5.7827,-5.7803,-5.7779,-5.8039,-5.8039,-5.8205,-5.8207,-5.8208]}]]